| time (UTC) | temp F | wind direction | speed knots | gust knots | rain 1hr in | rain 24hr in | rain mn in | humidity % | barometer mb |
| 20260904225424 | 42 | 321 | 0.9 | 2.6 | 0.00 | 0.05 | 0.00 | 95 | 992.4 |
| 20260904224503 | 42 | 321 | 0.9 | 1.7 | 0.00 | 0.05 | 0.00 | 95 | 992.6 |
| 20260904223603 | 42 | 321 | 1.7 | 2.6 | 0.00 | 0.05 | 0.00 | 95 | 992.6 |
| 20260904222703 | 42 | 321 | 0.0 | 2.6 | 0.00 | 0.05 | 0.00 | 94 | 992.7 |
| 20260904221803 | 42 | 0 | 0.0 | 0.0 | 0.00 | 0.05 | 0.00 | 94 | 992.7 |
| 20260904220903 | 42 | 0 | 0.0 | 0.0 | 0.00 | 0.05 | 0.00 | 94 | 992.8 |
| 20260904220003 | 43 | 0 | 0.0 | 0.0 | 0.00 | 0.05 | 0.00 | 94 | 992.8 |
| 20260904215403 | 43 | 0 | 0.0 | 0.0 | 0.00 | 0.05 | 0.00 | 94 | 992.9 |
| 20260904214524 | 44 | 0 | 0.0 | 0.0 | 0.00 | 0.05 | 0.00 | 95 | 992.8 |
| 20260904213603 | 44 | 0 | 0.0 | 0.0 | 0.00 | 0.05 | 0.00 | 94 | 992.9 |
| 20260904212703 | 44 | 321 | 0.0 | 1.7 | 0.00 | 0.05 | 0.00 | 95 | 992.9 |
| 20260904211803 | 44 | 321 | 0.9 | 1.7 | 0.00 | 0.05 | 0.00 | 94 | 993.0 |
| 20260904210903 | 44 | 0 | 0.0 | 0.0 | 0.00 | 0.05 | 0.00 | 94 | 993.1 |
| 20260904210004 | 45 | 321 | 0.0 | 0.9 | 0.00 | 0.05 | 0.00 | 94 | 993.1 |
| 20260904205403 | 46 | 321 | 0.9 | 1.7 | 0.00 | 0.05 | 0.05 | 94 | 993.2 |
| 20260904204503 | 46 | 321 | 2.6 | 3.5 | 0.00 | 0.05 | 0.05 | 95 | 993.2 |
| 20260904203603 | 47 | 321 | 2.6 | 3.5 | 0.00 | 0.05 | 0.05 | 94 | 993.2 |
| 20260904202703 | 47 | 321 | 2.6 | 4.3 | 0.00 | 0.05 | 0.05 | 95 | 993.3 |
| 20260904201803 | 47 | 321 | 3.5 | 4.3 | 0.00 | 0.05 | 0.05 | 95 | 993.2 |
| 20260904200903 | 47 | 321 | 3.5 | 4.3 | 0.00 | 0.05 | 0.05 | 95 | 993.4 |
| 20260904200003 | 47 | 316 | 3.5 | 4.3 | 0.00 | 0.05 | 0.05 | 94 | 993.4 |
| 20260904195403 | 47 | 315 | 3.5 | 4.3 | 0.00 | 0.06 | 0.05 | 95 | 993.4 |
| 20260904194503 | 46 | 316 | 2.6 | 4.3 | 0.00 | 0.06 | 0.05 | 95 | 993.5 |
| 20260904193603 | 45 | 311 | 3.5 | 4.3 | 0.00 | 0.06 | 0.05 | 94 | 993.5 |
| 20260904192703 | 44 | 302 | 1.7 | 3.5 | 0.00 | 0.06 | 0.05 | 93 | 993.4 |
| 20260904191803 | 45 | 297 | 1.7 | 3.5 | 0.00 | 0.06 | 0.05 | 93 | 993.4 |
| 20260904190903 | 45 | 221 | 1.7 | 3.5 | 0.00 | 0.06 | 0.05 | 93 | 993.5 |
| 20260904190003 | 45 | 218 | 1.7 | 2.6 | 0.00 | 0.06 | 0.05 | 93 | 993.6 |
| 20260904185403 | 44 | 218 | 0.9 | 2.6 | 0.00 | 0.06 | 0.05 | 93 | 993.7 |
| 20260904184503 | 44 | 217 | 0.9 | 1.7 | 0.00 | 0.07 | 0.05 | 92 | 993.8 |
| 20260904183603 | 44 | 217 | 0.9 | 1.7 | 0.00 | 0.07 | 0.05 | 91 | 993.8 |
| 20260904182724 | 44 | 217 | 0.0 | 1.7 | 0.00 | 0.07 | 0.05 | 91 | 993.8 |
| 20260904181803 | 45 | 217 | 0.9 | 1.7 | 0.00 | 0.07 | 0.05 | 91 | 993.9 |
| 20260904180924 | 46 | 218 | 0.9 | 1.7 | 0.00 | 0.07 | 0.05 | 90 | 993.9 |
| 20260904180003 | 46 | 217 | 0.0 | 0.9 | 0.00 | 0.08 | 0.05 | 90 | 993.9 |
| 20260904175403 | 47 | 217 | 0.0 | 0.9 | 0.00 | 0.09 | 0.05 | 90 | 993.9 |
| 20260904174503 | 48 | 217 | 0.9 | 0.9 | 0.00 | 0.10 | 0.05 | 89 | 993.9 |
| 20260904173624 | 49 | 217 | 0.9 | 1.7 | 0.00 | 0.11 | 0.05 | 90 | 993.9 |
| 20260904172703 | 50 | 217 | 0.9 | 1.7 | 0.00 | 0.11 | 0.05 | 89 | 994.0 |
| 20260904171803 | 51 | 218 | 0.0 | 1.7 | 0.00 | 0.11 | 0.05 | 88 | 994.0 |
| 20260904170903 | 52 | 217 | 0.9 | 1.7 | 0.00 | 0.11 | 0.05 | 88 | 994.1 |
| 20260904170003 | 52 | 217 | 0.0 | 1.7 | 0.00 | 0.11 | 0.05 | 88 | 994.2 |
| 20260904165403 | 53 | 0 | 0.0 | 0.0 | 0.00 | 0.11 | 0.05 | 88 | 994.2 |
| 20260904164503 | 54 | 0 | 0.0 | 0.0 | 0.00 | 0.11 | 0.05 | 87 | 994.2 |
| 20260904163603 | 54 | 0 | 0.0 | 0.0 | 0.00 | 0.11 | 0.05 | 86 | 994.2 |
| 20260904162703 | 55 | 0 | 0.0 | 0.0 | 0.00 | 0.11 | 0.05 | 85 | 994.2 |
| 20260904161803 | 55 | 0 | 0.0 | 0.0 | 0.00 | 0.11 | 0.05 | 84 | 994.3 |
| 20260904160904 | 54 | 218 | 0.0 | 1.7 | 0.00 | 0.11 | 0.05 | 84 | 994.3 |
| 20260904160004 | 55 | 217 | 0.9 | 1.7 | 0.00 | 0.11 | 0.05 | 84 | 994.3 |
| 20260904155404 | 54 | 218 | 0.9 | 0.9 | 0.00 | 0.11 | 0.05 | 85 | 994.3 |
| 20260904154525 | 54 | 217 | 0.9 | 2.6 | 0.00 | 0.11 | 0.05 | 85 | 994.4 |
| 20260904153604 | 54 | 217 | 0.9 | 1.7 | 0.00 | 0.11 | 0.05 | 85 | 994.5 |
| 20260904152704 | 55 | 217 | 0.9 | 2.6 | 0.00 | 0.11 | 0.05 | 85 | 994.5 |
| 20260904151804 | 55 | 222 | 0.9 | 4.3 | 0.00 | 0.11 | 0.05 | 84 | 994.6 |
| 20260904150904 | 55 | 228 | 1.7 | 4.3 | 0.00 | 0.11 | 0.05 | 84 | 994.6 |
| 20260904150004 | 56 | 229 | 0.9 | 2.6 | 0.00 | 0.11 | 0.05 | 83 | 994.7 |
| 20260904145404 | 56 | 202 | 1.7 | 4.3 | 0.00 | 0.11 | 0.05 | 82 | 994.7 |
| 20260904144504 | 57 | 240 | 1.7 | 7.0 | 0.00 | 0.11 | 0.05 | 80 | 994.7 |
| 20260904143604 | 58 | 165 | 2.6 | 6.1 | 0.00 | 0.11 | 0.05 | 79 | 994.8 |
| 20260904142725 | 58 | 172 | 0.9 | 4.3 | 0.00 | 0.11 | 0.05 | 80 | 994.7 |
| 20260904141804 | 58 | 172 | 0.9 | 3.5 | 0.00 | 0.11 | 0.05 | 79 | 994.8 |
| 20260904140925 | 58 | 170 | 1.7 | 5.2 | 0.00 | 0.11 | 0.05 | 79 | 994.8 |
| 20260904140004 | 58 | 167 | 2.6 | 6.1 | 0.00 | 0.11 | 0.05 | 79 | 995.0 |
| 20260904135404 | 58 | 162 | 3.5 | 7.0 | 0.00 | 0.11 | 0.05 | 79 | 995.0 |
| 20260904134504 | 58 | 164 | 3.5 | 7.0 | 0.00 | 0.11 | 0.05 | 79 | 995.0 |
| 20260904133604 | 58 | 161 | 3.5 | 7.0 | 0.00 | 0.11 | 0.05 | 79 | 995.0 |
| 20260904132704 | 58 | 151 | 2.6 | 5.2 | 0.00 | 0.11 | 0.05 | 78 | 995.0 |
| 20260904131825 | 58 | 162 | 3.5 | 7.0 | 0.00 | 0.11 | 0.05 | 78 | 995.1 |
| 20260904130904 | 58 | 168 | 1.7 | 5.2 | 0.00 | 0.11 | 0.05 | 79 | 995.1 |
| 20260904130004 | 58 | 164 | 3.5 | 6.1 | 0.00 | 0.11 | 0.05 | 78 | 995.1 |
| 20260904125404 | 58 | 169 | 3.5 | 5.2 | 0.00 | 0.11 | 0.05 | 79 | 995.1 |
| 20260904124504 | 58 | 173 | 2.6 | 6.1 | 0.00 | 0.11 | 0.05 | 78 | 995.1 |
| 20260904123604 | 58 | 160 | 3.5 | 7.8 | 0.00 | 0.11 | 0.05 | 80 | 995.2 |
| 20260904122725 | 58 | 159 | 3.5 | 8.7 | 0.00 | 0.11 | 0.05 | 79 | 995.1 |
| 20260904121825 | 57 | 169 | 3.5 | 7.8 | 0.00 | 0.11 | 0.05 | 80 | 995.4 |
| 20260904120904 | 57 | 168 | 2.6 | 5.2 | 0.00 | 0.11 | 0.05 | 80 | 995.5 |
| 20260904120004 | 57 | 169 | 3.5 | 7.0 | 0.00 | 0.11 | 0.05 | 80 | 995.5 |
| 20260904115404 | 57 | 179 | 2.6 | 7.0 | 0.00 | 0.11 | 0.05 | 80 | 995.5 |
| 20260904114504 | 57 | 181 | 2.6 | 5.2 | 0.00 | 0.11 | 0.05 | 81 | 995.6 |
| 20260904113604 | 57 | 167 | 1.7 | 4.3 | 0.00 | 0.11 | 0.05 | 80 | 995.8 |
| 20260904112704 | 57 | 199 | 1.7 | 4.3 | 0.00 | 0.11 | 0.05 | 83 | 995.8 |
| 20260904111804 | 57 | 190 | 1.7 | 4.3 | 0.00 | 0.11 | 0.05 | 83 | 995.8 |
| 20260904110904 | 56 | 164 | 2.6 | 6.1 | 0.00 | 0.11 | 0.05 | 84 | 995.8 |
| 20260904110025 | 56 | 167 | 2.6 | 7.0 | 0.00 | 0.11 | 0.05 | 85 | 995.9 |
| 20260904105404 | 55 | 168 | 2.6 | 7.0 | 0.00 | 0.11 | 0.05 | 85 | 995.9 |
| 20260904104525 | 55 | 163 | 2.6 | 6.1 | 0.00 | 0.11 | 0.05 | 85 | 996.0 |
| 20260904103605 | 55 | 169 | 3.5 | 6.1 | 0.00 | 0.11 | 0.05 | 85 | 996.0 |
| 20260904102704 | 55 | 165 | 2.6 | 4.3 | 0.00 | 0.11 | 0.05 | 86 | 996.1 |
| 20260904101825 | 55 | 169 | 2.6 | 5.2 | 0.00 | 0.11 | 0.05 | 85 | 996.3 |
| 20260904100904 | 55 | 171 | 1.7 | 4.3 | 0.00 | 0.11 | 0.05 | 85 | 996.3 |
| 20260904100004 | 55 | 159 | 1.7 | 5.2 | 0.00 | 0.11 | 0.05 | 85 | 996.3 |
| 20260904095404 | 55 | 164 | 3.5 | 6.1 | 0.00 | 0.11 | 0.05 | 85 | 996.3 |
| 20260904094504 | 55 | 158 | 2.6 | 5.2 | 0.00 | 0.11 | 0.05 | 87 | 996.4 |
| 20260904093604 | 55 | 167 | 2.6 | 4.3 | 0.00 | 0.11 | 0.05 | 86 | 996.3 |
| 20260904092704 | 55 | 172 | 2.6 | 6.1 | 0.00 | 0.11 | 0.05 | 87 | 996.5 |
| 20260904091825 | 55 | 151 | 3.5 | 6.1 | 0.00 | 0.11 | 0.05 | 87 | 996.5 |
| 20260904090904 | 55 | 185 | 1.7 | 6.1 | 0.00 | 0.11 | 0.05 | 87 | 996.5 |
| 20260904090004 | 55 | 179 | 1.7 | 6.1 | 0.00 | 0.11 | 0.05 | 88 | 996.4 |
| 20260904085404 | 54 | 157 | 2.6 | 6.1 | 0.00 | 0.11 | 0.05 | 88 | 996.5 |
| 20260904084504 | 54 | 161 | 2.6 | 7.0 | 0.00 | 0.11 | 0.05 | 88 | 996.4 |
| 20260904083604 | 54 | 155 | 3.5 | 6.1 | 0.00 | 0.11 | 0.05 | 89 | 996.5 |
| 20260904082704 | 54 | 164 | 3.5 | 5.2 | 0.00 | 0.11 | 0.05 | 89 | 996.5 |
| 20260904081825 | 54 | 167 | 2.6 | 4.3 | 0.00 | 0.11 | 0.05 | 90 | 996.5 |
| 20260904080904 | 53 | 163 | 2.6 | 5.2 | 0.00 | 0.11 | 0.05 | 91 | 996.5 |
| 20260904080004 | 53 | 163 | 2.6 | 5.2 | 0.00 | 0.11 | 0.05 | 91 | 996.5 |
| 20260904075404 | 52 | 166 | 3.5 | 6.1 | 0.00 | 0.11 | 0.05 | 91 | 996.5 |
| 20260904074504 | 52 | 173 | 3.5 | 6.1 | 0.00 | 0.11 | 0.05 | 91 | 996.4 |
| 20260904073625 | 52 | 169 | 3.5 | 5.2 | 0.00 | 0.11 | 0.05 | 91 | 996.4 |
| 20260904072704 | 52 | 169 | 3.5 | 6.1 | 0.00 | 0.11 | 0.05 | 91 | 996.6 |
| 20260904071825 | 52 | 172 | 2.6 | 5.2 | 0.00 | 0.11 | 0.05 | 91 | 996.4 |
| 20260904070904 | 52 | 164 | 2.6 | 5.2 | 0.00 | 0.11 | 0.05 | 91 | 996.4 |
| 20260904070004 | 52 | 165 | 2.6 | 5.2 | 0.00 | 0.11 | 0.05 | 92 | 996.4 |
| 20260904065404 | 52 | 160 | 2.6 | 5.2 | 0.00 | 0.11 | 0.05 | 92 | 996.5 |
| 20260904064504 | 52 | 169 | 2.6 | 6.1 | 0.00 | 0.11 | 0.05 | 93 | 996.5 |
| 20260904063604 | 51 | 166 | 2.6 | 5.2 | 0.00 | 0.11 | 0.05 | 93 | 996.5 |
| 20260904062704 | 51 | 166 | 2.6 | 5.2 | 0.00 | 0.11 | 0.05 | 93 | 996.5 |
| 20260904061804 | 51 | 176 | 1.7 | 4.3 | 0.00 | 0.11 | 0.05 | 93 | 996.5 |
| 20260904060904 | 51 | 186 | 0.9 | 3.5 | 0.00 | 0.11 | 0.05 | 93 | 996.5 |
| 20260904060004 | 51 | 186 | 0.9 | 2.6 | 0.00 | 0.11 | 0.05 | 94 | 996.7 |
| 20260904055404 | 51 | 190 | 0.9 | 3.5 | 0.00 | 0.11 | 0.05 | 94 | 996.7 |
| 20260904054504 | 51 | 197 | 1.7 | 6.1 | 0.00 | 0.11 | 0.05 | 95 | 996.7 |
| 20260904053604 | 50 | 170 | 1.7 | 5.2 | 0.00 | 0.11 | 0.05 | 95 | 996.7 |
| 20260904052704 | 50 | 201 | 1.7 | 5.2 | 0.00 | 0.11 | 0.05 | 95 | 996.7 |
| 20260904051825 | 49 | 197 | 0.9 | 2.6 | 0.00 | 0.11 | 0.05 | 95 | 996.8 |
| 20260904050904 | 49 | 197 | 0.9 | 3.5 | 0.00 | 0.11 | 0.05 | 95 | 996.9 |
| 20260904050004 | 48 | 197 | 0.9 | 2.6 | 0.00 | 0.11 | 0.05 | 95 | 996.8 |
| 20260904045425 | 48 | 197 | 0.9 | 2.6 | 0.00 | 0.11 | 0.05 | 95 | 996.9 |
| 20260904044504 | 48 | 196 | 0.0 | 1.7 | 0.00 | 0.11 | 0.05 | 94 | 997.0 |
| 20260904043604 | 48 | 197 | 0.0 | 0.9 | 0.00 | 0.11 | 0.05 | 94 | 997.0 |
| 20260904042704 | 48 | 197 | 0.9 | 1.7 | 0.00 | 0.11 | 0.05 | 94 | 997.0 |
| 20260904041804 | 48 | 197 | 0.9 | 1.7 | 0.00 | 0.11 | 0.05 | 94 | 997.1 |
| 20260904040904 | 48 | 197 | 0.9 | 2.6 | 0.00 | 0.11 | 0.05 | 94 | 997.1 |
| 20260904040025 | 48 | 197 | 0.9 | 2.6 | 0.00 | 0.11 | 0.05 | 95 | 997.2 |
| 20260904035425 | 48 | 197 | 0.9 | 1.7 | 0.00 | 0.11 | 0.05 | 94 | 997.2 |
| 20260904034504 | 48 | 197 | 0.0 | 1.7 | 0.00 | 0.11 | 0.05 | 94 | 997.2 |
| 20260904033604 | 48 | 197 | 0.9 | 3.5 | 0.00 | 0.11 | 0.05 | 94 | 997.1 |
| 20260904032725 | 48 | 197 | 0.0 | 2.6 | 0.00 | 0.11 | 0.05 | 94 | 997.3 |
| 20260904031804 | 48 | 197 | 0.0 | 0.9 | 0.00 | 0.11 | 0.05 | 94 | 997.3 |
| 20260904030904 | 48 | 197 | 0.0 | 1.7 | 0.00 | 0.11 | 0.05 | 94 | 997.4 |
| 20260904030004 | 48 | 197 | 0.9 | 2.6 | 0.00 | 0.11 | 0.05 | 94 | 997.4 |
| 20260904025425 | 48 | 197 | 0.9 | 2.6 | 0.00 | 0.11 | 0.05 | 94 | 997.4 |
| 20260904024504 | 48 | 197 | 0.9 | 2.6 | 0.00 | 0.11 | 0.05 | 94 | 997.4 |
| 20260904023604 | 48 | 197 | 0.0 | 1.7 | 0.00 | 0.11 | 0.05 | 94 | 997.5 |
| 20260904022725 | 48 | 197 | 0.9 | 3.5 | 0.00 | 0.11 | 0.05 | 94 | 997.5 |
| 20260904021804 | 48 | 197 | 0.9 | 2.6 | 0.00 | 0.11 | 0.05 | 94 | 997.5 |
| 20260904020904 | 48 | 205 | 0.9 | 3.5 | 0.00 | 0.11 | 0.05 | 94 | 997.6 |
| 20260904020025 | 48 | 179 | 0.9 | 3.5 | 0.01 | 0.11 | 0.05 | 94 | 997.6 |
| 20260904015404 | 48 | 197 | 1.7 | 3.5 | 0.01 | 0.11 | 0.05 | 94 | 997.6 |
| 20260904014504 | 49 | 217 | 0.9 | 4.3 | 0.01 | 0.11 | 0.05 | 94 | 997.6 |
| 20260904013625 | 49 | 344 | 0.9 | 1.7 | 0.01 | 0.11 | 0.05 | 94 | 997.7 |
| 20260904012704 | 49 | 344 | 0.9 | 2.6 | 0.01 | 0.11 | 0.05 | 94 | 997.7 |
| 20260904011804 | 49 | 344 | 0.9 | 2.6 | 0.01 | 0.11 | 0.05 | 94 | 997.8 |
| 20260904010904 | 49 | 344 | 0.0 | 0.9 | 0.02 | 0.11 | 0.05 | 94 | 997.9 |
| 20260904010004 | 49 | 344 | 0.0 | 1.7 | 0.02 | 0.10 | 0.04 | 94 | 997.9 |
| 20260904005404 | 49 | 344 | 0.0 | 0.9 | 0.02 | 0.10 | 0.04 | 94 | 997.9 |
| 20260904004504 | 49 | 0 | 0.0 | 0.0 | 0.03 | 0.10 | 0.04 | 94 | 998.0 |
| 20260904003604 | 49 | 0 | 0.0 | 0.0 | 0.03 | 0.10 | 0.04 | 94 | 998.1 |
| 20260904002704 | 49 | 0 | 0.0 | 0.0 | 0.04 | 0.10 | 0.04 | 94 | 998.2 |
| 20260904001804 | 49 | 0 | 0.0 | 0.0 | 0.04 | 0.10 | 0.04 | 94 | 998.2 |
| 20260904000925 | 49 | 344 | 0.0 | 1.7 | 0.03 | 0.09 | 0.03 | 94 | 998.2 |
| 20260904000025 | 49 | 344 | 0.0 | 1.7 | 0.02 | 0.08 | 0.02 | 94 | 998.3 |
| 20260903235404 | 49 | 0 | 0.0 | 0.0 | 0.02 | 0.08 | 0.02 | 94 | 998.3 |
| 20260903234525 | 49 | 344 | 0.0 | 0.9 | 0.01 | 0.07 | 0.01 | 94 | 998.3 |
| 20260903233604 | 49 | 0 | 0.0 | 0.0 | 0.01 | 0.07 | 0.01 | 94 | 998.3 |
| 20260903232704 | 49 | 0 | 0.0 | 0.0 | 0.00 | 0.06 | 0.00 | 94 | 998.3 |
| 20260903231804 | 49 | 344 | 0.0 | 0.9 | 0.00 | 0.06 | 0.00 | 94 | 998.3 |
| 20260903230904 | 49 | 344 | 0.0 | 1.7 | 0.00 | 0.06 | 0.00 | 94 | 998.4 |
| 20260903230025 | 49 | 0 | 0.0 | 0.0 | 0.00 | 0.06 | 0.00 | 94 | 998.4 |